This is the latest recevied weather packets stored in our database for station/object DG9BJA-13. If no packets are shown the sender has not sent any weather packets the latest 10 day(s).
| Time | Temp. | Humidity | Pressure | Rain* | Wind** | Luminosity | Snow |
|---|---|---|---|---|---|---|---|
| 1777745776 | 23.33° C | 53% | 1014.1 hPa | 0 mm | - | 58 W/m² | - |
| 1777745176 | 23.33° C | 52% | 1014.1 hPa | 0 mm | - | 77 W/m² | - |
| 1777744577 | 23.89° C | 52% | 1014.2 hPa | 0 mm | - | 104 W/m² | - |
| 1777743976 | 23.89° C | 51% | 1014.2 hPa | 0 mm | - | 114 W/m² | - |
| 1777743376 | 23.89° C | 52% | 1014.4 hPa | 0 mm | - | 163 W/m² | - |
| 1777742776 | 23.33° C | 51% | 1014.5 hPa | 0 mm | - | 97 W/m² | - |
| 1777742176 | 23.89° C | 51% | 1014.5 hPa | 0 mm | - | 77 W/m² | - |
| 1777741577 | 24.44° C | 50% | 1014.5 hPa | 0 mm | - | 111 W/m² | - |
| 1777740976 | 24.44° C | 49% | 1014.6 hPa | 0 mm | - | 221 W/m² | - |
| 1777740376 | 23.89° C | 49% | 1014.6 hPa | 0 mm | - | 262 W/m² | - |
| 1777739776 | 23.89° C | 50% | 1014.7 hPa | 0 mm | - | 135 W/m² | - |
| 1777739176 | 23.89° C | 49% | 1015.1 hPa | 0 mm | - | 153 W/m² | - |
| 1777738576 | 24.44° C | 49% | 1015.1 hPa | 0 mm | - | 155 W/m² | - |
| 1777737976 | 25° C | 48% | 1015.2 hPa | 0 mm | - | 162 W/m² | - |
| 1777737376 | 25° C | 48% | 1015.3 hPa | 0 mm | - | 253 W/m² | - |
| 1777736776 | 25° C | 47% | 1015.3 hPa | 0 mm | - | 250 W/m² | - |
| 1777736175 | 25.56° C | 46% | 1015.5 hPa | 0 mm | - | 345 W/m² | - |
| 1777735576 | 25.56° C | 46% | 1015.6 hPa | 0 mm | - | 457 W/m² | - |
| 1777734975 | 25° C | 46% | 1015.6 hPa | 0 mm | - | 299 W/m² | - |
| 1777734376 | 25.56° C | 44% | 1015.7 hPa | 0 mm | - | 499 W/m² | - |
| 1777733776 | 25.56° C | 44% | 1015.7 hPa | 0 mm | - | 436 W/m² | - |
| 1777733175 | 25.56° C | 45% | 1015.7 hPa | 0 mm | - | 483 W/m² | - |
| 1777732575 | 25.56° C | 45% | 1015.7 hPa | 0 mm | - | 424 W/m² | - |
| 1777731976 | 25.56° C | 44% | 1015.8 hPa | 0 mm | - | 475 W/m² | - |
| 1777731378 | 25.56° C | 44% | 1015.8 hPa | 0 mm | - | 557 W/m² | - |
* Rain latest hour (hover to see other rain measurements)
** Current wind speed in m/s (hover to see current wind gust speed)